TimeCST,TemperatureF,Dew PointF,Humidity,Sea Level PressureIn,VisibilityMPH,Wind Direction,Wind SpeedMPH,Gust SpeedMPH,PrecipitationIn,Events,Conditions,WindDirDegrees,DateUTC
12:53 AM,27.0,19.0,72,29.57,9.0,SW,15.0,-,N/A,,Clear,230,2014-01-19 06:53:00
1:53 AM,28.9,21.0,72,29.53,9.0,WSW,16.1,-,N/A,,Clear,240,2014-01-19 07:53:00
2:53 AM,28.0,19.9,72,29.54,10.0,WSW,12.7,-,N/A,,Clear,250,2014-01-19 08:53:00
3:53 AM,28.0,19.9,72,29.53,10.0,WSW,10.4,-,N/A,,Clear,250,2014-01-19 09:53:00
4:53 AM,26.1,19.0,75,29.52,10.0,West,8.1,-,N/A,,Clear,260,2014-01-19 10:53:00
5:53 AM,30.9,21.9,69,29.52,10.0,West,9.2,-,N/A,,Clear,280,2014-01-19 11:53:00
6:53 AM,30.0,21.0,69,29.52,10.0,West,8.1,-,N/A,,Clear,280,2014-01-19 12:53:00
7:53 AM,25.0,19.0,78,29.51,10.0,West,5.8,-,N/A,,Clear,260,2014-01-19 13:53:00
8:53 AM,27.0,19.9,75,29.54,10.0,West,8.1,-,N/A,,Clear,280,2014-01-19 14:53:00
9:17 AM,28.4,21.2,74,29.49,10.0,NW,5.8,-,N/A,,Mostly Cloudy,310,2014-01-19 15:17:00
9:46 AM,28.4,21.2,74,29.48,10.0,WNW,3.5,-,N/A,,Overcast,300,2014-01-19 15:46:00
9:53 AM,30.0,21.9,72,29.53,10.0,Calm,Calm,-,N/A,,Overcast,0,2014-01-19 15:53:00
10:53 AM,30.9,23.0,72,29.52,9.0,NNW,3.5,-,N/A,,Overcast,340,2014-01-19 16:53:00
11:53 AM,30.9,24.1,76,29.50,9.0,WNW,3.5,-,N/A,,Overcast,300,2014-01-19 17:53:00
12:53 PM,30.9,24.1,76,29.49,9.0,NNW,5.8,-,N/A,,Overcast,330,2014-01-19 18:53:00
1:53 PM,32.0,23.0,69,29.50,9.0,NW,6.9,-,N/A,,Overcast,320,2014-01-19 19:53:00
2:03 PM,32.0,23.0,69,29.46,9.0,NNW,8.1,-,N/A,,Overcast,330,2014-01-19 20:03:00
2:50 PM,32.0,23.0,69,29.47,10.0,NW,8.1,-,N/A,,Overcast,320,2014-01-19 20:50:00
2:53 PM,32.0,23.0,69,29.52,10.0,NW,9.2,-,N/A,,Overcast,320,2014-01-19 20:53:00
3:03 PM,32.0,23.0,69,29.48,10.0,NW,5.8,-,N/A,,Overcast,320,2014-01-19 21:03:00
3:53 PM,32.0,23.0,69,29.56,6.0,NW,12.7,-,N/A,,Haze,320,2014-01-19 21:53:00
4:53 PM,32.0,24.1,73,29.59,9.0,NW,8.1,-,N/A,,Overcast,320,2014-01-19 22:53:00
5:24 PM,32.0,24.8,75,29.55,10.0,NNW,12.7,-,N/A,,Overcast,330,2014-01-19 23:24:00
5:53 PM,32.0,23.0,69,29.61,10.0,North,10.4,-,N/A,,Overcast,350,2014-01-19 23:53:00
6:00 PM,32.0,23.0,69,29.57,10.0,North,8.1,-,N/A,,Overcast,360,2014-01-20 00:00:00
6:32 PM,30.2,21.2,69,29.59,10.0,North,9.2,-,N/A,,Overcast,350,2014-01-20 00:32:00
6:53 PM,30.9,21.0,67,29.65,10.0,North,10.4,-,N/A,,Overcast,350,2014-01-20 00:53:00
7:53 PM,30.0,19.9,66,29.66,10.0,North,4.6,-,N/A,,Overcast,350,2014-01-20 01:53:00
8:53 PM,28.9,19.0,67,29.68,10.0,NNW,4.6,-,N/A,,Overcast,330,2014-01-20 02:53:00
9:53 PM,28.0,18.0,66,29.69,10.0,North,4.6,-,N/A,,Overcast,360,2014-01-20 03:53:00
10:53 PM,28.0,17.1,63,29.72,10.0,NNW,5.8,-,N/A,,Overcast,340,2014-01-20 04:53:00
11:53 PM,26.1,18.0,71,29.73,3.0,North,5.8,-,0.00,,Overcast,360,2014-01-20 05:53:00